{"data":{"norad_id":55450,"intl_designator":"2023-015B","name":"STARLINK-5686","alt_names":[],"object_type":"PAYLOAD","status":"ACTIVE","operator":null,"country":"US","launch_date":"2023-02-02","launch_site_code":"AFETR","launch_vehicle":null,"mission":null,"orbit_class":"UNKNOWN","rcs_meters":null,"size_class":null,"mass_kg":null,"dimensions":null,"purposes":["comms"],"wikipedia_slug":null,"has_3d_model":false,"image_url":null,"decayed_at":null,"tle_current":{"epoch":"2026-09-20T13:42:56.626272Z","epoch_age_seconds":94239,"freshness":"FRESH","line1":"1 55450U 23015B   26263.57148873 -.00000321  00000+0 -21507-5 0  9999","line2":"2 55450  43.0040 308.4011 0001177 297.0281  63.0450 15.27579021201464","mean_motion":15.27579021,"eccentricity":0.0001177,"inclination_deg":43.004,"raan_deg":308.4011,"arg_perigee_deg":297.0281,"mean_anomaly_deg":63.045,"bstar":-2.1507e-6,"rev_number":20146,"period_min":94.266809127644,"perigee_km":482.24446557087,"apogee_km":483.85958946795,"semimajor_km":6861.1890275194,"source":"CELESTRAK","updated_at":"2026-09-21T09:00:33.225261Z"}}}